User: anonymous
Location: Oshawa
(43.9000°N, 78.8670°W)
Time: 19:50:17
(UTC-04:00)
Language:

Cosmos 1408 Rocket - Orbit

View from above orbital plane
View from above orbital plane
View from above satellite
View from above satellite

Ground track
Ground track

The orbit data is extracted from the following two-line orbital elements,

1 13553U 82092B   14203.81870345  .00000125  00000-0  12261-4 0  9583
2 13553 082.5711 141.7166 0020170 309.9151 106.8967 14.83555121719781
Epoch (UTC): 22 July 2014 19:38:55
Eccentricity: 0.0020170
inclination: 82.5711°
perigee height: 604 km
apogee height: 632 km
right ascension of ascending node: 141.7166°
argument of perigee: 309.9151°
revolutions per day: 14.83555121
mean anomaly at epoch: 106.8967°
orbit number at epoch: 71978

The dashed part of the orbit path shows where the satellite is in the earth's shadow,  

DLR